Terminal Aerodrome Forecast
Issued by NWS Upton, NY

Home | Current Version | Previous Version | Text Only | Print | Product List | Glossary On
Versions: 1 2 3 4 5 6 7 8 9 10 11 12 13 14 15 16 17 18 19 20 21 22 23 24 25 26 27 28 29
000
FTUS41 KOKX 250322 AAA
TAFISP
TAF AMD
KISP 250322Z 2503/2524 08010KT P6SM -RA OVC060
      TEMPO 2505/2507 SCT015 BKN030
     FM250700 07012KT 5SM -RA BR SCT007 BKN012
     FM250900 06013G21KT 3SM -RA BR BKN007 OVC010
     FM251400 08016G24KT 1SM -RA BR OVC006=

USA.gov is the U.S. government's official web portal to all federal, state and local government web resources and services.